This is the latest recevied weather packets stored in our database for station/object NY3Q. If no packets are shown the sender has not sent any weather packets the latest 10 day(s).
| Time | Temp. | Humidity | Pressure | Rain* | Wind** | Luminosity | Snow |
|---|---|---|---|---|---|---|---|
| 1777333836 | 18.89° C | 83% | 1020.6 hPa | 0 mm | - | 4 W/m² | - |
| 1777333533 | 18.89° C | 83% | 1020.3 hPa | 0 mm | - | 4 W/m² | - |
| 1777333229 | 18.89° C | 83% | 1020.4 hPa | 0 mm | - | 4 W/m² | - |
| 1777332928 | 18.89° C | 83% | 1020.3 hPa | 0 mm | - | 5 W/m² | - |
| 1777332626 | 18.89° C | 83% | 1020.5 hPa | 0 mm | - | 6 W/m² | - |
| 1777332322 | 18.89° C | 82% | 1020.2 hPa | 0 mm | - | 7 W/m² | - |
| 1777332018 | 18.89° C | 82% | 1020.2 hPa | 0 mm | - | 8 W/m² | - |
| 1777331716 | 18.89° C | 82% | 1020.3 hPa | 0 mm | - | 10 W/m² | - |
| 1777331413 | 18.89° C | 82% | 1020.5 hPa | 0 mm | - | 13 W/m² | - |
| 1777331110 | 18.89° C | 81% | 1020.3 hPa | 0 mm | - | 19 W/m² | - |
| 1777330807 | 18.89° C | 82% | 1020.3 hPa | 0 mm | - | 26 W/m² | - |
| 1777330504 | 18.89° C | 82% | 1020.4 hPa | 0 mm | - | 24 W/m² | - |
| 1777330202 | 18.89° C | 81% | 1020.2 hPa | 0 mm | - | 25 W/m² | - |
| 1777329900 | 18.89° C | 81% | 1020.3 hPa | 0 mm | - | 24 W/m² | - |
| 1777329598 | 18.89° C | 81% | 1020.3 hPa | 0 mm | - | 26 W/m² | - |
| 1777329296 | 18.89° C | 81% | 1020.4 hPa | 0 mm | - | 31 W/m² | - |
| 1777328993 | 18.89° C | 81% | 1020.2 hPa | 0 mm | - | 28 W/m² | - |
| 1777328691 | 18.89° C | 80% | 1020.1 hPa | 0 mm | - | 32 W/m² | - |
| 1777328388 | 18.89° C | 81% | 1020.2 hPa | 0 mm | - | 46 W/m² | - |
| 1777328087 | 18.89° C | 80% | 1020.1 hPa | 0 mm | - | 54 W/m² | - |
| 1777327785 | 18.89° C | 80% | 1020.2 hPa | 0 mm | - | 64 W/m² | - |
| 1777327482 | 18.89° C | 80% | 1020.3 hPa | 0 mm | - | 54 W/m² | - |
| 1777327179 | 18.89° C | 80% | 1020.3 hPa | 0 mm | - | 54 W/m² | - |
| 1777326877 | 18.89° C | 80% | 1020.1 hPa | 0 mm | - | 50 W/m² | - |
| 1777326573 | 18.89° C | 80% | 1020.3 hPa | 0 mm | - | 53 W/m² | - |
* Rain latest hour (hover to see other rain measurements)
** Current wind speed in m/s (hover to see current wind gust speed)